Tracking 28799 objects as of 18-Apr-2024
HD Live streaming from Space Station
objects crossing your sky now

COSMOS 1275 DEB

Track COSMOS 1275 DEB now!
10-day predictions


NORAD ID: 12714
Int'l Code: 1981-053BJ
Perigee: 952.0 km
Apogee: 1,142.4 km
Inclination: 83.0 °
Period: 106.0 minutes
Semi major axis: 7418 km
RCS: 0.2013 m2 (medium)
Launch date: June 4, 1981
Source: Commonwealth of Independent States (former USSR) (CIS)
Launch site: PLESETSK MISSILE AND SPACE COMPLEX (PKMTR)

Note: This is SATELLITE DEBRIS
Your satellite tracking list
Your tracking list is empty




NASA's NSSDC Master Catalog

Two Line Element Set (TLE):
1 12714U 81053BJ  24108.61643667  .00000943  00000-0  12025-2 0  9994
2 12714  82.9778 185.2521 0128359 181.5494 178.5275 13.58804022109741
Source of the keplerian elements: AFSPC